Wind_Speed
64 67 66 64 55 50 52 51 57 65 63 59 52 43 42 46 46 47 48 47 47 47 46 46 45 42 40 38 36 35 35 36 37 40 43 41 38 37 37 36 35 35 35 34 33 32 30 29 29 30 30 31 32 31 30 28 25 22 18 19 19 18 17 14 12 12 12 11 9 10 10 8 9 10 11 11 10 8 8 8 7 7 7 4 4 5 6 6
58 63 62 64 59 51 52 51 54 63 65 61 54 45 42 45 47 48 47 46 47 48 47 46 46 43 41 39 36 35 35 36 36 39 39 38 39 38 37 36 36 35 35 34 33 33 32 30 29 29 29 29 31 31 29 30 29 26 20 19 21 19 16 14 12 11 12 11 8 9 9 8 10 12 13 13 11 10 9 8 8 8 7 5 4 5 6 6
52 58 56 62 64 55 52 52 52 60 66 62 54 46 42 42 49 52 48 46 46 46 47 47 46 45 43 40 37 36 36 37 40 41 37 37 40 41 39 37 37 36 35 34 33 33 32 31 30 30 30 29 31 31 29 29 29 29 24 20 21 21 17 14 12 13 13 11 8 9 9 10 11 13 14 14 13 12 9 8 8 6 4 4 4 6 7 6
48 53 52 58 66 60 56 55 51 56 65 63 55 49 44 40 48 54 50 48 47 45 47 47 46 45 43 42 39 37 36 37 44 43 38 37 37 39 39 36 35 34 34 34 33 33 32 32 32 32 33 32 32 32 30 31 31 32 30 24 21 20 18 15 14 14 15 13 10 10 11 11 11 14 15 14 14 11 6 6 7 5 5 5 5 6 8 7
46 50 49 53 64 63 59 57 50 52 62 64 57 52 48 41 42 52 53 51 49 47 47 46 46 46 45 43 40 39 37 38 44 42 37 39 37 37 37 35 34 34 34 35 34 34 34 34 34 34 35 35 35 32 30 32 34 34 35 31 25 21 19 18 16 16 16 16 13 12 13 12 13 16 14 13 13 8 3 4 7 8 9 8 7 8 9 8
44 46 45 48 60 65 62 58 50 50 60 64 59 51 50 44 38 47 52 51 51 48 48 47 46 46 45 44 42 42 41 39 40 39 38 38 37 38 38 37 36 35 36 36 35 35 35 35 34 35 36 36 37 34 31 31 32 33 34 35 32 25 22 20 18 17 18 19 16 15 15 14 16 16 14 13 11 7 6 7 10 12 12 12 11 11 11 9
41 41 40 43 54 65 66 60 51 50 57 63 61 51 50 49 43 48 52 51 51 49 49 48 47 47 45 46 44 44 45 41 36 36 38 37 36 38 38 37 37 36 37 38 37 35 35 35 33 33 34 35 37 37 34 31 31 32 31 33 35 30 25 23 21 19 19 20 19 18 16 16 17 16 15 12 8 9 10 12 13 14 14 13 13 12 12 11
39 39 38 40 48 60 67 63 54 50 53 59 61 53 53 52 43 48 54 51 50 48 49 49 49 49 47 48 49 48 48 45 39 34 36 38 37 37 36 36 36 36 38 38 38 35 33 34 33 30 32 34 34 35 36 35 34 34 34 34 35 34 29 26 24 20 20 21 21 20 17 17 18 18 17 11 7 10 13 15 16 16 15 14 12 12 13 13
37 37 36 37 42 52 62 65 59 51 51 57 59 54 57 55 41 45 53 52 51 49 48 48 48 49 49 48 50 52 52 48 43 36 33 35 36 35 34 34 34 35 37 36 36 35 34 34 32 30 30 31 31 32 34 36 38 37 37 37 37 35 32 29 26 22 22 22 23 21 18 19 19 20 20 13 10 13 15 17 17 16 16 14 13 13 13 14
35 35 34 33 36 44 55 65 64 55 52 56 58 56 57 55 45 47 53 54 53 50 48 47 47 49 49 49 51 54 53 48 44 40 33 31 34 35 32 31 32 33 35 35 35 34 33 32 31 30 29 30 30 29 28 31 35 36 36 36 37 36 35 33 29 25 24 23 24 22 20 21 21 23 20 14 14 16 16 18 19 18 16 15 14 14 14 15
34 33 33 32 34 38 49 62 66 58 53 54 56 58 57 53 50 50 52 54 54 50 49 48 47 48 49 50 53 55 52 47 44 42 38 32 31 34 33 32 31 33 35 36 36 34 33 32 31 30 30 31 31 29 27 28 30 32 33 33 35 36 37 37 32 26 25 25 25 24 23 23 24 25 19 14 16 17 17 19 20 19 17 17 17 16 16 16
33 32 31 32 33 36 42 55 66 60 51 52 55 57 59 55 51 49 47 49 53 51 50 49 47 47 47 49 52 52 49 46 45 42 41 37 32 30 32 33 32 32 35 36 36 35 33 33 33 32 32 31 30 27 27 28 29 30 31 33 34 34 36 39 35 28 26 26 26 25 26 27 28 25 18 15 17 17 18 20 20 20 19 19 19 19 18 18
31 30 29 30 32 34 38 47 62 64 52 51 54 55 59 56 48 48 48 48 53 53 51 49 47 46 47 49 52 50 47 46 45 44 42 40 36 31 29 31 32 32 33 34 35 34 34 34 34 33 33 31 29 27 27 28 29 30 31 33 33 33 36 40 36 30 28 27 28 27 27 30 30 24 19 17 18 18 19 20 21 21 21 21 21 20 20 20
30 29 27 29 30 33 37 41 54 66 58 52 56 55 52 53 47 46 50 51 52 52 50 49 47 45 47 49 50 48 47 45 44 45 43 41 40 36 31 29 31 32 32 33 33 34 34 34 33 32 32 30 29 29 29 29 30 31 31 33 34 34 37 40 36 32 30 29 29 28 29 31 29 24 21 19 19 19 20 20 21 22 22 22 22 22 21 21
29 28 26 27 28 31 35 37 46 64 62 54 57 57 49 49 47 43 48 51 51 50 48 49 47 47 48 48 49 47 46 46 45 45 43 41 40 38 35 30 30 32 33 33 34 35 35 36 34 32 31 30 30 30 29 30 30 30 31 33 35 37 38 39 35 30 29 29 30 29 29 31 29 24 22 21 21 21 20 21 21 23 23 23 23 23 22 22
29 27 26 26 27 29 32 34 41 57 65 56 53 57 51 47 46 40 47 49 49 50 50 52 50 48 50 49 48 47 47 48 47 44 42 41 39 37 35 32 31 33 34 33 33 34 35 36 36 34 33 32 34 31 26 28 30 29 32 34 34 36 37 38 35 28 26 28 31 32 29 30 28 25 24 23 23 22 21 21 22 23 24 24 24 24 23 22
28 27 26 26 26 28 30 33 38 51 65 59 50 55 51 42 42 41 46 49 48 51 52 53 53 50 47 46 48 50 51 50 47 45 43 41 40 37 34 32 33 34 34 33 32 33 34 37 39 38 37 36 35 33 27 26 28 27 30 32 33 33 34 37 35 28 25 28 31 33 32 31 29 25 24 24 23 24 23 22 22 24 25 25 26 25 25 24
26 26 26 27 26 27 29 33 37 44 60 62 53 53 46 37 39 40 46 52 50 51 51 51 53 51 44 46 52 53 52 50 48 46 43 41 39 37 34 31 32 34 35 34 33 35 35 37 39 40 42 41 39 38 32 23 24 28 31 33 33 33 35 38 36 26 22 26 30 33 34 32 30 27 23 23 24 25 24 23 23 24 25 25 27 27 26 26
24 25 26 28 27 28 30 31 35 38 51 63 58 50 43 36 35 41 51 58 57 56 55 55 56 54 51 53 54 52 51 49 47 45 43 42 40 37 35 31 30 33 36 37 35 35 36 35 37 42 46 46 42 40 37 29 28 31 30 31 34 36 39 40 38 27 19 21 27 32 34 32 32 30 25 22 24 25 25 25 24 24 25 26 27 28 28 27
22 24 26 29 29 29 30 30 33 34 41 60 65 52 45 41 36 47 63 63 63 64 59 59 60 57 57 56 54 52 49 46 46 46 44 43 41 38 36 33 30 31 35 37 36 35 35 35 39 44 45 45 43 39 38 37 35 32 29 28 32 37 41 41 38 29 20 22 26 28 31 33 33 32 28 25 25 26 27 25 25 25 25 26 27 27 28 27
22 23 26 30 31 31 32 31 32 32 36 54 70 61 51 50 38 44 64 62 60 63 58 56 58 57 56 53 54 53 51 48 45 45 44 42 41 39 38 36 35 35 35 36 36 34 35 38 41 42 40 40 40 39 38 38 38 37 33 29 30 37 42 40 36 28 21 25 28 25 28 33 35 32 31 30 29 27 27 25 25 25 25 26 27 27 27 26
21 22 25 29 33 33 33 33 31 32 33 43 64 66 55 53 39 32 53 62 60 59 55 53 56 56 53 49 50 48 50 52 46 44 45 44 43 42 41 40 38 38 38 36 36 35 36 39 39 36 34 34 36 38 38 35 35 36 35 32 31 36 39 38 37 29 21 24 28 27 28 32 35 34 33 33 33 30 27 26 25 25 26 27 28 27 26 25
22 22 24 29 34 34 35 35 32 33 33 37 57 66 51 45 39 27 35 55 61 59 56 54 55 57 52 46 44 44 48 53 51 48 47 45 45 44 42 41 40 38 39 39 39 38 37 37 37 33 30 31 34 36 36 34 34 34 35 34 34 35 33 32 32 29 24 24 25 27 31 33 35 37 38 36 34 33 31 29 28 27 27 27 28 28 27 25
23 22 23 29 33 35 37 36 35 34 34 38 54 65 51 36 35 25 23 40 49 54 60 58 56 59 56 47 43 45 48 51 53 51 48 47 47 44 41 40 40 39 38 38 37 38 37 34 34 34 31 31 33 34 34 34 33 34 35 35 35 35 32 29 25 23 27 27 24 23 27 35 40 41 43 40 36 35 34 33 31 29 27 27 28 29 27 26
23 22 22 28 33 35 36 38 39 35 35 41 54 66 56 39 32 18 22 36 36 41 57 59 58 60 57 48 43 45 47 49 51 50 48 47 46 46 42 39 39 39 37 36 34 35 36 33 30 30 32 33 33 34 34 32 32 34 35 35 35 31 31 30 21 16 21 25 25 20 18 28 41 44 44 43 41 39 36 35 35 31 27 28 29 28 27 26
23 23 23 27 32 34 36 40 40 35 38 44 54 64 61 54 44 25 28 38 32 35 49 53 57 59 57 50 45 45 47 48 49 47 47 46 44 45 43 40 38 37 36 34 32 32 35 35 31 29 31 33 34 35 34 31 31 33 35 34 32 29 30 27 17 12 15 19 19 16 15 21 33 44 44 43 46 45 40 37 36 34 31 30 30 28 27 28
24 24 23 27 32 34 37 41 39 38 42 45 51 60 62 61 49 35 32 26 23 35 46 49 52 55 55 50 47 50 49 49 49 46 47 47 44 43 42 43 41 37 36 33 30 30 33 35 33 31 29 31 35 37 34 32 30 33 35 32 29 29 28 24 16 15 16 19 17 17 20 22 31 45 45 40 44 46 46 44 39 36 34 33 32 30 28 27
27 26 25 27 32 35 39 41 40 41 41 41 45 51 55 50 39 39 34 11 11 33 43 47 50 52 54 49 47 52 50 51 52 48 47 47 46 44 41 41 41 37 35 35 33 31 31 33 33 33 31 31 36 35 32 31 30 32 33 31 28 24 27 26 17 15 14 17 21 27 24 17 26 46 44 39 44 45 46 46 42 39 36 34 33 31 30 28
29 29 27 27 31 37 40 42 44 43 40 37 37 41 44 38 35 41 30 8 11 31 40 44 47 51 53 51 52 53 50 50 53 51 49 48 47 44 40 38 38 35 32 33 35 31 28 28 28 30 33 34 35 31 29 29 29 30 27 25 23 21 27 26 16 15 9 11 25 37 31 16 20 39 42 39 46 47 44 42 41 40 37 35 34 32 31 30
31 31 29 29 34 39 41 44 47 46 42 38 36 39 41 37 39 33 14 9 19 30 40 45 45 48 52 55 55 52 51 51 52 52 49 48 46 41 38 34 31 31 29 28 30 30 25 21 21 25 29 32 31 28 25 24 26 29 25 22 20 23 30 25 16 13 5 12 33 41 37 22 16 31 41 42 47 48 43 39 38 40 39 37 35 33 33 31
32 33 30 32 38 41 44 48 49 46 43 41 42 45 43 41 43 24 4 15 26 31 42 45 45 50 54 57 54 46 48 51 51 54 51 47 46 41 38 34 30 28 27 28 28 28 24 20 22 25 27 28 27 26 24 22 27 30 28 27 20 18 23 18 11 8 1 12 29 34 38 29 18 29 36 34 38 42 43 42 38 37 38 38 35 33 33 32
35 36 33 35 39 44 49 49 47 46 45 46 47 48 44 38 34 19 10 19 24 32 46 47 47 54 55 57 54 45 47 50 50 53 54 51 48 45 43 42 42 35 29 32 30 26 25 22 23 24 24 26 25 25 24 22 27 32 32 31 19 8 9 9 5 5 9 14 13 14 25 28 33 43 39 30 26 27 35 40 40 38 36 35 35 34 34 33
39 39 38 38 42 47 51 48 48 49 49 51 51 52 47 30 17 20 26 23 22 36 49 48 50 56 57 56 52 47 47 48 51 52 52 52 48 45 43 42 45 40 33 34 30 23 19 18 25 28 26 27 28 27 30 30 31 34 36 33 22 7 3 7 5 1 10 17 13 8 9 20 39 47 45 42 34 26 28 31 33 36 35 35 34 35 36 34
43 42 43 43 45 50 52 50 51 54 54 56 55 53 46 22 9 28 40 30 27 43 50 49 53 55 56 55 52 50 48 46 51 52 49 50 47 45 45 41 42 42 37 34 31 27 19 13 25 33 29 28 30 29 31 33 33 35 36 33 26 15 6 5 6 3 6 8 9 10 7 14 27 28 31 39 38 34 33 30 28 30 31 34 35 35 35 34
46 45 47 47 50 55 54 52 55 57 58 58 55 50 44 26 17 33 45 38 37 47 49 51 58 54 48 50 52 51 49 46 49 50 48 51 51 50 50 47 45 43 38 33 29 30 25 15 17 25 28 24 22 26 29 29 29 31 33 31 29 25 13 2 3 9 9 5 5 14 18 24 26 18 16 21 28 33 34 34 34 32 29 31 34 36 35 33
50 49 50 52 56 58 55 56 58 58 61 61 55 49 45 37 32 36 46 48 46 51 51 50 55 53 44 44 47 48 48 48 50 49 47 49 50 51 50 48 48 46 41 35 29 28 25 15 9 13 21 21 15 19 26 27 26 27 32 36 32 27 17 3 1 7 7 5 10 16 25 34 32 25 20 16 17 22 26 34 40 39 35 32 32 33 33 33
55 54 56 58 59 59 58 60 60 57 62 63 56 51 46 43 41 40 48 54 51 57 59 49 46 50 48 42 41 46 49 49 50 48 46 46 46 50 51 47 48 47 43 39 32 29 24 15 11 11 13 19 16 13 18 25 27 28 34 40 32 22 17 10 3 2 2 4 9 16 26 29 24 23 24 24 23 19 17 21 28 36 40 39 36 32 31 33
58 57 61 62 61 60 62 63 61 60 61 60 57 54 47 42 41 39 48 55 53 60 63 50 44 49 54 52 47 51 54 52 53 51 48 47 44 49 54 49 48 47 43 40 32 28 24 13 10 12 10 13 17 16 18 24 27 27 31 36 29 20 20 19 9 2 4 4 5 9 19 24 27 27 21 21 26 24 18 14 15 22 30 35 37 35 33 34
57 57 63 65 61 62 66 64 61 63 61 59 62 57 44 41 42 38 46 55 54 59 61 52 48 50 54 58 56 56 56 55 59 55 50 51 44 48 57 52 48 48 44 42 34 27 25 14 9 14 14 13 18 22 27 31 29 24 24 31 32 23 21 25 20 9 3 3 4 5 7 16 29 33 25 20 19 19 20 20 18 18 20 24 29 32 34 35
58 58 65 67 63 65 67 64 62 65 63 62 67 60 43 41 49 42 43 55 57 57 59 55 54 53 53 55 55 56 53 51 60 56 48 50 43 42 55 53 48 50 44 40 36 27 25 20 14 17 17 19 23 27 31 34 34 32 29 31 34 29 21 20 23 20 10 4 3 2 5 12 18 21 24 24 21 19 19 19 20 21 21 21 23 27 32 34
61 63 68 67 66 69 68 66 66 66 65 65 65 61 46 41 52 50 44 53 58 57 58 58 57 56 56 55 55 56 51 46 56 54 45 49 46 41 52 56 49 48 45 40 36 29 24 21 20 24 25 25 25 25 26 28 32 37 37 34 36 35 25 13 13 23 24 14 7 3 6 14 15 12 17 19 19 22 21 20 21 22 24 25 24 27 30 32
68 69 70 68 70 72 70 69 70 67 66 68 64 57 50 43 48 53 48 50 56 59 59 58 56 55 56 58 58 58 54 49 55 56 48 51 52 43 45 54 50 44 43 42 37 30 25 21 20 25 29 26 19 18 22 25 27 32 37 37 34 33 33 22 12 16 21 20 20 13 11 21 20 8 9 13 14 16 18 21 24 24 26 27 27 28 29 30
75 73 69 69 73 76 73 70 70 66 63 67 64 52 49 49 45 48 52 52 54 58 58 55 54 53 54 57 57 57 56 50 51 57 51 47 49 41 36 44 48 43 41 41 39 34 26 21 20 20 22 25 21 18 20 24 25 29 40 42 34 31 36 33 22 12 10 17 21 12 12 30 32 16 10 12 14 17 17 19 22 22 25 27 27 28 28 29
78 74 67 69 74 78 78 74 71 67 61 62 64 51 45 52 50 47 54 55 53 56 56 54 56 56 55 57 59 61 59 50 48 54 52 45 46 44 37 38 42 44 43 41 42 40 28 22 22 17 9 12 16 14 20 30 31 31 37 41 38 35 29 29 31 21 15 23 24 13 14 26 26 22 22 16 13 16 16 17 19 19 21 24 25 26 25 26
75 70 66 69 75 78 79 79 74 68 62 59 60 51 41 47 52 50 52 53 53 54 54 53 54 55 56 57 58 61 62 56 50 52 51 45 44 43 41 40 40 44 45 40 40 39 31 28 30 23 13 11 13 16 25 35 37 33 32 34 38 37 30 28 26 19 22 32 29 24 27 24 15 15 22 22 22 22 20 21 21 19 20 21 22 23 23 23
73 67 65 67 73 77 77 78 75 69 65 61 56 50 43 45 49 51 52 53 53 52 51 51 53 52 53 53 52 53 57 53 48 50 51 47 44 42 43 42 39 42 46 41 35 35 33 32 34 33 29 28 28 27 26 29 36 40 38 36 37 38 39 33 23 23 33 31 29 40 45 36 24 16 13 18 26 26 24 22 19 17 17 16 15 17 17 17
69 67 71 70 70 74 74 72 71 67 66 64 58 52 47 45 49 52 54 54 53 54 51 48 50 51 51 52 52 52 55 51 45 47 52 51 46 42 41 39 36 39 44 41 35 34 36 35 36 37 35 32 29 27 22 22 30 40 42 40 39 39 41 40 39 47 44 26 29 47 48 45 45 32 17 14 18 21 22 21 18 14 12 11 11 11 12 12
63 65 74 76 70 71 73 69 66 63 63 63 60 56 52 49 51 55 54 48 47 52 50 44 47 51 50 51 53 53 54 50 44 45 50 52 50 45 42 39 35 35 39 40 38 37 37 38 38 38 37 32 27 24 23 19 21 30 38 42 43 42 43 47 53 56 45 35 39 40 34 41 46 37 29 23 18 20 21 19 18 15 11 12 13 11 12 12
60 64 72 76 73 73 73 67 63 61 60 59 55 54 55 53 52 54 54 48 45 49 50 46 46 49 47 47 49 53 55 51 47 49 52 54 54 52 49 45 41 39 41 44 44 41 40 39 38 37 36 35 29 24 24 20 17 21 30 36 42 46 47 51 55 52 45 48 53 42 36 43 36 27 31 29 25 27 26 21 20 19 18 19 17 15 15 15
63 68 72 73 73 76 74 66 63 63 59 56 51 49 52 53 53 54 54 53 52 52 52 51 50 49 47 45 47 50 53 52 51 54 56 57 58 58 56 54 51 47 46 48 48 47 41 33 31 34 32 30 31 27 23 22 20 19 23 28 35 43 49 53 54 51 49 53 54 47 49 54 44 34 32 29 29 33 32 29 28 25 24 24 22 20 19 19
64 68 72 71 67 72 74 66 65 66 61 56 52 48 50 53 55 55 53 53 54 54 55 56 54 50 47 46 48 49 49 49 49 49 52 54 55 57 56 52 51 51 49 47 45 47 40 25 23 30 28 26 30 28 23 25 23 23 31 35 35 38 44 47 49 49 52 54 51 49 55 59 54 48 42 36 35 36 36 34 31 28 27 27 25 24 22 22
64 66 71 72 64 66 71 64 61 67 67 62 56 51 52 53 55 56 53 50 51 52 54 55 52 49 47 47 50 50 48 50 50 48 48 48 49 52 50 44 43 45 48 47 44 44 42 30 22 25 27 26 27 26 27 23 16 24 41 45 41 39 38 38 42 44 46 50 51 55 59 59 56 56 54 47 40 37 37 36 32 30 29 28 28 27 25 25
Wind_Direction
229 231 232 226 215 208 205 204 204 204 207 207 208 214 214 210 207 209 212 212 211 212 213 213 211 210 212 213 213 213 212 215 215 214 215 209 203 202 202 203 203 205 206 207 207 206 208 211 214 214 216 221 226 226 221 218 218 220 225 227 229 233 235 241 245 236 222 231 252 252 246 251 260 268 271 267 258 246 234 225 214 216 217 206 200 185 183 196
229 231 234 229 218 207 206 205 204 204 205 207 208 213 217 212 206 210 212 211 211 212 213 213 211 209 211 214 212 213 214 214 216 217 215 207 202 203 204 205 205 208 210 209 208 207 208 210 214 216 217 222 229 233 229 226 224 218 223 229 227 231 233 236 243 234 224 237 249 233 232 247 262 269 269 267 263 254 243 230 213 209 214 204 197 193 187 191
230 230 234 230 219 208 207 207 205 205 205 206 208 211 216 215 208 210 213 211 212 212 214 214 211 210 210 213 213 213 215 215 216 214 209 205 203 202 204 207 208 210 213 214 213 211 210 210 213 216 218 222 228 235 232 226 222 215 219 228 227 228 229 230 237 237 231 234 236 227 231 244 255 263 261 261 262 252 240 234 223 213 222 221 198 192 194 192
231 232 235 231 222 212 207 206 204 204 204 205 209 211 213 216 210 210 215 214 214 214 215 215 212 211 211 212 213 214 217 220 219 213 208 208 204 203 204 207 210 213 216 218 218 218 217 214 214 215 217 222 228 233 233 227 222 218 220 226 229 229 227 226 233 239 235 231 231 235 241 246 253 258 256 256 252 237 224 239 234 220 224 227 209 196 199 198
232 234 237 234 226 216 208 206 204 203 204 205 209 212 211 215 212 209 216 217 216 217 216 216 214 211 212 212 214 214 216 221 222 214 211 213 209 207 208 211 214 216 219 221 221 222 222 219 217 217 217 220 225 229 232 229 227 225 225 227 230 232 227 224 232 239 237 233 230 238 248 252 255 254 253 252 244 226 210 243 231 220 210 200 200 200 201 203
233 234 238 237 229 222 213 207 206 203 204 206 207 211 210 212 214 210 215 218 217 218 217 217 216 213 213 213 215 216 216 219 220 215 213 215 213 213 215 217 220 219 222 225 224 223 224 222 219 219 219 220 224 225 227 227 228 231 230 229 231 232 228 225 230 235 235 234 232 240 248 247 248 248 250 248 237 228 223 217 215 220 211 193 191 192 194 203
232 232 236 238 232 227 219 210 208 203 202 206 207 210 208 209 216 211 212 218 216 218 217 217 218 215 213 214 215 217 218 219 220 215 212 214 214 216 217 218 220 219 221 225 225 224 224 223 220 221 224 225 227 226 226 227 229 235 235 232 231 229 229 230 230 231 234 233 234 241 243 240 242 245 247 239 228 231 222 213 214 218 214 202 194 188 189 197
232 231 232 236 232 229 224 215 209 205 201 204 205 208 208 208 217 212 208 215 216 218 217 216 219 217 215 214 214 216 216 217 218 215 212 212 212 214 216 217 218 218 220 223 225 225 222 222 221 221 226 229 233 232 230 232 233 237 239 236 232 227 228 234 232 231 235 233 235 239 237 237 239 243 242 227 228 238 224 221 221 219 218 209 200 195 193 196
232 232 231 233 233 228 227 219 213 209 202 203 204 205 208 210 217 214 207 211 214 217 217 215 217 217 217 215 215 217 216 215 215 214 213 212 212 213 215 217 218 219 220 222 223 222 219 221 222 222 226 232 237 238 234 236 237 237 239 237 234 227 226 235 234 233 237 235 236 237 235 238 236 241 239 220 231 239 227 228 227 224 222 215 207 203 200 200
231 232 229 230 231 227 227 222 218 214 203 201 203 203 208 211 217 216 208 208 211 214 216 214 215 216 218 216 215 218 216 215 216 214 214 212 212 214 215 216 219 220 221 222 223 223 220 220 222 223 229 235 239 242 239 236 236 238 241 239 235 229 224 231 236 235 239 237 236 236 238 239 235 239 234 217 229 233 227 229 229 229 225 219 215 210 208 206
231 230 228 227 230 228 226 224 222 218 204 200 202 203 207 210 218 217 205 205 209 212 214 213 215 216 217 217 216 217 215 214 216 215 214 213 212 214 215 216 218 220 221 221 223 225 225 224 224 227 231 235 238 242 242 237 236 240 244 242 238 232 224 228 235 237 240 239 235 236 241 240 235 233 225 216 229 232 231 229 229 232 228 224 220 216 214 211
231 228 226 226 230 228 225 224 222 217 204 199 201 202 207 210 216 220 211 207 206 209 212 212 213 215 216 216 216 217 215 213 215 216 217 216 213 214 216 217 218 219 220 221 224 226 229 229 228 230 232 234 235 238 240 237 236 240 245 245 241 238 228 224 232 238 240 241 235 236 243 240 232 227 220 223 232 232 233 230 229 231 229 228 225 222 219 215
230 226 222 223 228 228 225 225 220 216 206 199 199 200 206 209 213 223 221 214 207 205 209 209 210 213 213 214 215 213 213 213 214 215 217 218 217 216 216 218 218 218 218 219 223 225 228 230 229 228 230 232 232 233 237 237 235 237 244 245 241 242 233 221 228 238 240 243 236 237 247 240 228 223 222 228 232 234 233 228 228 231 230 230 229 228 225 223
225 222 219 219 225 227 227 228 222 217 209 199 199 198 202 206 210 224 222 211 206 201 202 206 205 207 210 214 215 210 209 211 212 214 215 216 217 217 216 216 216 216 214 214 218 221 224 227 227 225 226 227 229 233 237 237 236 234 241 243 238 239 231 218 228 240 240 243 237 237 248 241 226 222 227 232 233 235 233 229 229 231 231 230 230 231 231 231
221 218 214 215 221 226 228 232 226 220 212 199 197 198 197 199 202 218 220 208 204 199 197 201 202 203 207 211 213 208 206 207 209 212 213 215 217 217 217 216 216 214 211 212 215 217 220 221 219 219 221 223 227 230 231 232 236 234 234 236 234 235 228 217 226 241 241 242 239 238 247 242 228 221 227 233 235 235 232 229 229 231 231 231 232 233 234 236
217 214 210 210 216 223 228 232 228 223 215 200 194 197 195 194 192 203 216 209 201 198 195 196 198 202 204 206 209 207 206 206 207 209 210 212 214 216 217 217 216 214 210 210 213 216 219 219 217 216 218 220 222 222 220 225 230 230 228 230 231 233 230 222 224 237 242 242 240 238 243 242 231 223 226 230 233 235 234 230 227 229 231 232 234 236 237 239
214 210 206 205 209 218 226 230 229 225 219 206 193 193 194 196 193 195 208 207 200 198 196 195 196 199 203 206 207 206 206 206 205 205 207 209 210 212 214 214 214 212 209 209 211 215 218 220 220 219 218 219 219 216 215 220 221 221 223 226 230 231 231 228 226 234 242 242 241 240 241 240 232 227 228 230 232 234 234 231 229 230 232 233 235 236 237 240
213 209 202 201 204 212 222 228 228 227 222 212 195 193 199 199 197 198 203 203 200 198 197 197 193 190 197 206 208 208 207 205 204 204 205 206 206 208 208 211 213 211 206 205 209 213 215 218 220 222 221 220 220 218 217 220 220 223 225 225 230 232 231 230 228 232 242 245 243 241 242 238 231 229 228 230 233 234 234 232 232 232 233 235 236 236 236 237
211 209 201 197 199 207 219 225 227 229 225 215 199 197 204 199 202 207 204 201 197 195 195 194 190 191 201 208 208 209 206 203 203 201 203 205 203 203 203 203 208 212 206 202 205 209 213 215 216 219 221 220 221 222 222 226 228 231 234 233 235 236 234 230 228 231 243 251 247 242 244 240 231 228 227 230 234 235 235 234 234 234 234 235 235 236 235 234
211 209 202 196 196 204 214 220 224 228 227 215 204 202 203 198 200 198 196 200 197 195 197 196 194 198 207 208 205 204 200 198 201 200 201 204 203 200 199 197 198 205 208 206 206 208 211 214 216 219 220 220 222 223 227 231 234 236 239 241 241 240 239 232 226 230 241 253 251 245 246 243 233 228 226 230 234 235 236 235 235 236 236 236 235 235 235 233
213 210 204 196 196 202 209 214 220 225 226 216 209 207 200 193 193 182 185 196 199 197 198 197 197 199 205 208 206 201 191 189 198 201 199 200 202 198 196 195 192 196 205 207 207 207 210 216 221 222 223 223 224 226 230 232 234 238 241 246 245 241 240 234 224 225 238 251 251 247 250 245 236 230 226 230 234 234 237 237 237 238 239 240 239 237 235 233
217 213 206 197 197 202 205 209 216 221 222 219 215 211 197 188 190 179 180 190 198 199 197 197 199 199 201 207 208 202 191 188 191 196 197 196 197 198 197 194 191 195 200 203 204 204 208 216 222 224 225 225 225 229 232 234 236 240 243 245 243 239 239 235 226 223 237 254 252 247 252 249 240 235 230 231 234 233 236 238 237 239 240 241 241 238 236 232
220 215 209 201 199 203 204 204 211 218 218 220 220 211 194 188 191 185 185 187 191 197 196 196 199 199 199 201 204 202 197 195 191 191 195 196 195 197 198 194 190 196 201 202 205 206 208 214 219 221 222 222 223 226 230 233 237 241 242 239 237 236 236 235 230 227 236 255 258 251 254 252 242 238 234 232 233 233 234 238 238 239 240 238 237 237 235 232
221 218 212 204 202 205 204 203 206 213 218 219 220 210 196 195 193 187 206 193 184 191 195 196 197 198 199 199 199 198 198 201 199 195 193 193 194 194 199 197 192 195 201 204 207 212 214 215 217 220 219 220 222 223 225 227 231 236 238 237 236 236 236 234 233 233 237 247 257 259 264 255 242 239 238 234 235 235 233 236 238 238 239 236 233 232 231 229
222 221 216 206 207 209 205 205 204 210 219 219 219 211 200 201 198 194 226 210 191 188 190 194 196 197 200 198 194 194 197 199 199 199 195 194 195 192 193 198 197 197 198 202 206 213 219 219 219 220 221 222 224 226 227 227 231 234 236 237 237 240 241 234 231 244 245 246 252 260 270 257 245 243 240 236 236 237 234 235 237 236 236 235 232 231 228 226
224 222 219 209 210 212 208 208 205 208 218 219 219 212 205 208 212 219 226 215 209 194 183 188 193 194 198 196 189 187 192 194 195 197 196 193 197 197 193 194 199 201 200 199 203 211 218 220 220 221 223 224 226 229 230 230 232 234 238 239 238 244 242 230 233 266 266 254 253 256 260 259 255 250 244 240 239 239 237 237 237 234 233 233 233 233 231 228
231 225 220 213 213 214 212 209 205 208 217 221 220 215 214 215 218 224 221 212 220 205 185 183 187 189 193 192 188 186 187 190 190 193 196 192 193 198 197 196 196 200 204 200 201 211 215 216 216 217 221 223 225 229 230 229 228 233 241 242 240 247 238 227 248 273 273 269 253 244 257 263 259 252 245 241 241 240 239 238 237 234 232 233 234 233 233 231
237 231 223 217 215 214 214 210 206 211 220 222 220 220 219 216 217 219 214 207 217 204 190 184 184 186 189 187 186 187 188 189 186 187 195 193 190 194 197 201 199 197 202 203 204 212 217 218 218 218 221 225 230 234 233 229 224 229 241 244 243 246 232 226 248 260 269 285 255 236 246 258 254 252 249 244 242 240 239 238 237 236 234 233 235 235 233 232
242 235 226 220 216 214 216 213 207 211 215 214 216 218 213 208 210 209 205 202 194 194 190 184 182 183 185 183 180 184 188 190 187 184 189 191 190 192 195 200 203 197 198 206 209 215 220 223 227 229 231 233 235 236 235 232 225 224 234 239 236 232 222 219 236 252 264 291 253 233 232 245 258 256 253 246 242 240 238 239 237 236 236 234 235 236 236 234
247 241 229 221 218 216 217 215 208 207 207 206 206 203 196 198 207 205 200 202 186 183 185 182 179 177 179 178 175 181 187 186 187 182 181 187 188 190 193 194 197 196 195 202 208 214 216 215 219 225 232 237 239 237 234 233 229 224 221 221 224 221 217 213 224 252 284 261 247 233 226 237 264 259 254 250 246 242 240 240 238 236 236 236 235 236 238 238
251 247 235 222 220 219 218 215 207 203 203 202 198 193 193 202 210 211 203 191 180 175 179 179 177 174 176 178 174 180 186 181 183 180 174 179 183 184 186 183 184 186 190 194 199 206 207 205 209 213 221 227 232 232 228 227 224 222 219 216 215 211 210 213 225 237 235 250 251 239 230 235 250 253 254 256 255 250 244 242 240 239 239 239 239 239 241 242
254 251 242 227 221 221 220 214 206 201 201 200 196 195 203 210 213 209 177 179 179 177 176 175 176 173 175 180 176 179 182 177 180 182 178 177 179 182 184 183 180 175 179 188 190 197 203 208 215 218 223 222 221 220 215 216 218 219 219 211 199 174 192 207 208 211 227 240 255 243 230 235 245 248 249 252 256 255 250 246 243 242 242 242 242 242 243 243
253 251 246 233 222 221 220 213 206 202 200 200 198 202 209 212 209 195 180 175 179 179 176 175 177 175 174 177 175 176 179 176 178 181 181 181 178 180 184 188 187 182 183 184 183 189 196 213 220 220 225 222 219 214 206 206 208 212 215 206 190 154 143 207 192 178 244 242 249 251 231 237 246 249 249 249 251 253 252 249 245 243 241 241 241 241 243 243
250 247 244 236 224 221 218 209 205 202 199 201 203 207 213 215 201 191 184 178 176 177 177 175 173 172 174 176 174 175 174 172 176 177 177 180 181 180 183 188 192 193 189 182 185 191 186 207 221 218 221 221 217 216 215 214 208 209 215 208 198 187 165 199 199 201 256 259 243 223 215 239 244 247 251 253 253 250 248 248 244 241 238 238 238 239 241 243
251 244 240 236 225 219 214 206 204 202 200 203 207 210 213 213 203 188 182 178 175 173 173 172 169 168 171 173 173 176 173 168 174 177 177 181 185 185 185 186 190 196 192 182 187 193 192 206 222 218 221 224 218 214 216 216 209 208 209 206 207 203 193 159 202 229 251 290 238 207 218 238 241 241 248 256 258 251 247 245 243 239 235 235 237 238 240 242
255 246 239 235 225 217 210 202 203 203 202 205 211 216 215 211 208 195 184 185 183 172 167 167 168 164 164 166 166 172 176 173 173 177 181 186 189 190 189 189 190 195 196 191 187 189 194 205 213 210 213 216 216 212 212 211 206 201 198 204 209 202 195 187 283 247 245 262 249 226 234 245 248 249 244 243 260 259 250 247 246 245 241 237 237 237 238 241
255 247 240 233 223 214 205 200 201 203 205 208 213 219 218 210 209 203 191 190 189 178 168 165 166 163 161 162 161 168 175 174 174 177 182 187 192 195 194 195 195 196 198 198 195 194 193 193 200 201 207 209 202 199 209 213 209 200 200 209 207 192 198 215 249 278 214 244 252 231 237 247 248 252 248 240 246 256 254 251 250 248 246 243 240 238 238 242
254 247 240 231 219 210 202 198 200 202 206 211 213 216 219 213 207 202 193 189 186 180 171 165 168 168 165 166 165 172 176 174 176 181 183 187 195 199 196 197 199 198 200 200 200 202 194 180 184 191 196 201 192 185 192 201 210 212 212 211 201 190 204 206 195 216 207 233 275 234 236 244 240 242 250 247 245 246 246 248 249 248 248 247 244 241 241 243
247 241 237 226 212 204 199 195 198 203 207 211 212 215 223 219 207 196 190 189 185 180 175 169 169 172 172 172 170 173 178 179 180 182 185 189 195 200 198 198 198 197 200 200 200 204 200 188 166 179 188 186 185 192 194 191 195 203 209 208 202 200 203 202 204 212 196 209 266 262 243 246 246 247 251 251 245 242 244 245 243 246 250 249 244 241 241 241
232 228 229 220 205 199 195 192 197 204 208 211 211 214 223 219 210 200 190 191 190 183 179 176 172 173 176 176 174 174 178 182 184 184 188 191 193 196 198 200 198 196 196 198 201 202 201 201 181 171 182 189 193 202 203 196 190 188 192 197 201 201 197 203 214 219 226 239 227 249 266 260 261 261 256 250 244 242 242 242 239 239 244 245 241 240 240 240
218 216 220 213 199 194 191 191 197 203 207 210 209 214 221 214 207 203 193 193 196 190 186 184 180 179 178 177 178 178 178 184 188 188 191 194 192 193 198 200 199 196 194 194 200 200 195 197 185 174 182 192 201 210 211 210 204 197 194 194 199 201 193 191 217 222 228 240 243 249 284 271 268 274 266 255 248 245 239 237 238 233 233 237 237 239 240 239
207 207 211 204 192 189 189 192 197 200 205 207 206 212 221 213 199 197 194 191 192 191 189 188 185 183 182 182 183 182 182 187 190 192 195 198 197 195 197 200 200 200 200 197 198 197 191 188 182 182 191 194 199 211 213 217 218 211 206 202 201 203 202 200 204 214 219 234 250 262 277 262 250 248 270 254 238 239 239 238 238 231 231 236 239 241 241 240
197 199 202 197 189 186 187 191 195 199 204 205 204 210 220 214 196 187 188 188 187 187 187 189 189 188 187 188 187 184 185 188 192 196 198 199 201 200 198 200 200 201 203 200 195 192 189 186 174 175 192 198 202 213 215 216 217 215 214 209 202 204 210 212 214 218 223 232 239 245 265 258 248 233 248 259 240 231 233 237 238 236 239 242 244 245 244 244
189 190 191 190 187 185 188 190 191 196 201 201 204 210 213 211 203 186 182 185 188 189 188 190 194 196 196 195 195 194 193 191 192 198 202 202 202 202 201 202 200 199 203 204 198 191 183 179 171 154 156 197 208 220 220 215 211 211 214 212 210 210 212 218 224 232 248 243 237 233 252 262 259 242 240 254 256 243 245 257 259 256 253 250 247 246 246 246
178 180 181 184 186 186 189 192 190 193 197 196 203 209 200 199 205 200 188 185 190 194 192 191 196 199 200 198 197 197 197 195 194 196 200 203 202 203 205 206 205 204 204 206 202 194 184 182 181 171 162 184 199 210 214 209 203 207 212 211 213 214 213 219 226 232 244 244 242 243 248 257 267 250 242 246 254 261 273 281 280 276 270 263 256 251 248 249
170 170 173 179 186 187 189 193 192 192 194 193 200 205 193 185 194 200 195 187 188 192 192 193 194 194 195 194 191 191 194 198 201 199 199 201 202 204 206 207 209 207 205 202 199 196 192 191 197 199 200 204 205 209 216 209 203 208 211 209 211 214 215 217 222 231 237 241 245 244 247 253 254 246 242 245 251 264 277 280 277 269 263 259 252 247 246 247
169 169 171 173 179 185 188 190 192 192 192 194 197 199 193 185 183 187 186 184 186 189 190 195 196 192 192 193 192 192 193 196 204 205 202 201 203 204 204 205 206 206 205 200 194 195 195 199 209 212 211 213 211 212 223 224 216 215 212 209 210 212 213 213 218 228 229 228 242 244 244 249 249 241 235 242 250 259 265 264 259 249 242 248 255 256 255 253
168 170 174 174 174 180 185 187 189 190 191 195 199 198 194 188 182 181 181 180 185 189 188 191 198 200 200 199 197 194 192 193 200 203 200 199 200 199 196 197 201 202 201 198 196 198 200 206 213 212 210 213 215 219 227 233 231 222 216 215 214 213 214 216 221 227 226 223 235 243 244 248 250 248 245 246 249 252 251 245 240 239 251 273 284 281 269 262
169 169 173 177 178 180 184 186 188 189 191 195 195 192 189 186 183 183 183 181 184 191 192 190 194 201 204 205 203 198 194 195 197 199 200 199 199 196 190 188 193 197 195 195 196 199 202 208 212 210 209 213 216 224 232 236 240 231 224 224 222 220 221 223 226 228 229 233 238 243 249 250 250 249 245 243 243 246 246 243 245 256 270 280 286 279 266 263
173 171 171 176 180 182 183 186 188 189 193 196 192 187 186 186 185 185 185 186 187 189 195 198 199 201 202 205 207 206 205 205 203 202 202 199 196 195 191 187 188 191 193 196 196 198 201 205 208 207 207 212 217 223 230 236 241 241 239 237 233 230 229 229 230 229 231 238 242 245 252 253 250 245 241 235 233 236 241 249 259 267 272 278 283 279 272 268
177 178 176 175 179 183 183 185 188 189 192 197 195 190 188 189 190 189 188 193 197 195 196 202 204 201 200 205 211 214 214 213 211 209 206 203 200 198 194 191 187 184 187 194 198 199 199 198 203 204 204 211 217 220 226 233 241 248 248 243 236 234 233 232 234 234 234 239 243 245 250 253 251 249 245 238 233 232 237 247 257 264 270 277 282 280 276 270
178 180 181 180 180 183 184 185 188 190 194 199 200 198 197 195 193 192 190 193 201 204 203 204 204 200 197 203 210 214 214 212 211 210 208 208 207 203 198 197 195 190 189 192 197 200 200 197 195 196 202 211 215 218 224 228 237 248 246 242 237 235 239 241 242 241 241 242 242 244 248 252 254 254 251 247 242 237 238 245 254 262 271 278 279 276 272 266
Height
2997 2999 3004 3011 3018 3022 3026 3031 3035 3040 3045 3049 3052 3056 3060 3064 3068 3072 3075 3080 3084 3087 3091 3095 3099 3102 3105 3107 3109 3112 3113 3114 3117 3117 3119 3125 3131 3133 3134 3136 3138 3140 3142 3145 3148 3152 3155 3157 3160 3162 3164 3166 3167 3168 3171 3173 3174 3176 3177 3177 3178 3179 3180 3182 3183 3183 3184 3184 3185 3185 3185 3186 3186 3186 3187 3187 3188 3188 3188 3189 3189 3190 3191 3192 3193 3193 3193 3194
2994 2997 3001 3006 3013 3019 3023 3028 3032 3036 3041 3045 3049 3053 3057 3060 3064 3069 3073 3077 3080 3084 3088 3092 3096 3100 3103 3105 3108 3110 3111 3113 3115 3115 3120 3126 3129 3131 3133 3135 3137 3139 3141 3144 3146 3150 3153 3155 3158 3161 3163 3164 3165 3167 3169 3171 3173 3174 3175 3176 3177 3178 3179 3181 3182 3183 3183 3184 3184 3184 3184 3185 3186 3186 3186 3186 3187 3188 3188 3189 3189 3190 3191 3192 3193 3193 3193 3194
2990 2994 2996 3000 3008 3014 3018 3024 3029 3033 3038 3042 3046 3050 3054 3057 3061 3065 3070 3074 3078 3082 3086 3090 3094 3097 3100 3103 3106 3108 3109 3111 3110 3112 3119 3123 3125 3128 3131 3133 3135 3137 3140 3142 3145 3148 3151 3154 3157 3159 3161 3163 3164 3165 3167 3170 3171 3173 3173 3175 3176 3177 3178 3180 3181 3182 3182 3183 3183 3183 3184 3184 3185 3185 3185 3186 3186 3187 3187 3189 3189 3190 3191 3192 3193 3193 3193 3194
2987 2991 2992 2994 3002 3009 3014 3019 3025 3030 3035 3040 3044 3047 3051 3054 3058 3063 3067 3071 3075 3079 3083 3087 3091 3095 3098 3101 3104 3106 3108 3107 3105 3111 3118 3120 3124 3127 3129 3132 3134 3137 3139 3141 3144 3147 3150 3152 3155 3157 3159 3161 3162 3164 3166 3168 3169 3170 3171 3173 3175 3176 3177 3179 3179 3180 3181 3181 3182 3182 3183 3183 3184 3184 3184 3185 3185 3186 3187 3189 3190 3190 3191 3192 3193 3193 3194 3194
2983 2987 2988 2990 2997 3005 3011 3015 3021 3026 3031 3036 3040 3044 3048 3051 3056 3061 3065 3069 3073 3077 3081 3085 3089 3093 3096 3099 3102 3103 3105 3104 3103 3110 3116 3117 3122 3125 3128 3131 3133 3136 3137 3139 3142 3145 3148 3150 3153 3155 3157 3159 3160 3162 3164 3166 3167 3168 3170 3172 3174 3174 3175 3177 3177 3178 3179 3180 3181 3181 3182 3183 3183 3182 3183 3184 3184 3186 3187 3188 3189 3190 3190 3191 3192 3193 3193 3194
2980 2983 2985 2987 2992 3000 3007 3013 3018 3022 3027 3033 3037 3042 3046 3050 3054 3059 3063 3066 3070 3074 3078 3082 3086 3090 3094 3097 3099 3100 3101 3101 3102 3109 3113 3115 3119 3122 3126 3129 3131 3134 3135 3137 3140 3144 3146 3148 3151 3152 3155 3157 3158 3160 3162 3164 3165 3167 3169 3171 3172 3173 3174 3175 3175 3175 3177 3178 3179 3180 3180 3181 3181 3181 3182 3182 3183 3185 3187 3187 3188 3188 3189 3189 3190 3192 3193 3194
2977 2981 2982 2984 2989 2994 3002 3009 3014 3019 3024 3029 3034 3039 3044 3048 3052 3056 3060 3064 3068 3072 3075 3079 3083 3087 3091 3093 3096 3097 3098 3100 3102 3107 3111 3114 3117 3120 3124 3127 3129 3132 3134 3135 3137 3141 3145 3146 3149 3151 3153 3155 3156 3158 3160 3162 3164 3165 3167 3168 3170 3171 3172 3174 3174 3174 3175 3176 3177 3178 3179 3180 3180 3180 3181 3181 3182 3184 3185 3186 3187 3187 3188 3189 3190 3191 3192 3193
2975 2978 2980 2982 2986 2991 2997 3005 3011 3016 3021 3026 3031 3037 3041 3044 3048 3052 3057 3061 3065 3069 3072 3076 3080 3083 3087 3089 3091 3091 3093 3097 3101 3106 3109 3112 3115 3118 3122 3124 3127 3130 3132 3133 3135 3140 3144 3145 3147 3150 3152 3153 3155 3157 3159 3161 3162 3163 3165 3165 3167 3169 3171 3172 3173 3174 3174 3175 3176 3176 3178 3178 3179 3179 3179 3180 3182 3183 3184 3185 3185 3186 3187 3188 3189 3191 3192 3192
2973 2975 2978 2980 2985 2989 2993 3001 3007 3012 3018 3022 3028 3034 3038 3041 3045 3049 3053 3057 3061 3065 3069 3073 3076 3080 3083 3086 3088 3088 3090 3095 3100 3105 3108 3111 3114 3117 3120 3123 3126 3128 3131 3132 3134 3138 3142 3144 3146 3148 3151 3152 3154 3156 3157 3159 3159 3160 3161 3162 3164 3167 3169 3170 3171 3172 3173 3174 3175 3175 3176 3176 3177 3177 3177 3179 3181 3181 3183 3184 3184 3185 3186 3187 3189 3190 3191 3192
2971 2974 2977 2980 2984 2987 2990 2997 3004 3009 3014 3019 3025 3031 3035 3039 3042 3045 3050 3053 3057 3062 3066 3070 3073 3076 3079 3082 3084 3084 3089 3096 3099 3103 3107 3110 3113 3116 3119 3122 3124 3127 3129 3131 3133 3136 3140 3143 3145 3148 3150 3151 3152 3153 3155 3156 3157 3159 3159 3161 3163 3165 3167 3168 3169 3171 3171 3173 3174 3174 3174 3174 3175 3175 3175 3178 3179 3180 3181 3182 3183 3184 3185 3187 3188 3189 3190 3191
2969 2972 2975 2978 2981 2984 2988 2993 3000 3007 3011 3015 3022 3028 3032 3037 3040 3042 3046 3050 3054 3059 3063 3067 3069 3072 3075 3078 3079 3081 3088 3094 3097 3102 3106 3108 3111 3114 3117 3120 3122 3124 3126 3129 3131 3134 3138 3141 3144 3147 3148 3148 3149 3151 3152 3153 3155 3157 3158 3159 3161 3163 3165 3166 3167 3169 3170 3171 3172 3173 3172 3172 3172 3172 3174 3177 3178 3178 3180 3181 3182 3183 3184 3186 3186 3187 3189 3190
2966 2970 2973 2975 2978 2981 2985 2989 2996 3005 3009 3013 3019 3024 3028 3033 3037 3040 3043 3048 3051 3055 3059 3063 3066 3069 3073 3075 3076 3081 3089 3093 3096 3100 3103 3106 3109 3111 3114 3117 3120 3122 3125 3128 3130 3133 3136 3138 3142 3145 3145 3146 3148 3150 3150 3151 3154 3155 3156 3157 3159 3161 3162 3164 3166 3167 3169 3169 3170 3171 3169 3168 3169 3171 3174 3176 3176 3177 3178 3179 3180 3182 3183 3184 3185 3186 3187 3188
2964 2968 2971 2974 2976 2979 2983 2986 2992 3001 3007 3011 3016 3022 3025 3030 3035 3037 3040 3044 3048 3052 3056 3060 3063 3067 3069 3071 3073 3080 3086 3090 3094 3097 3100 3104 3107 3110 3113 3115 3118 3121 3123 3126 3129 3132 3134 3136 3140 3142 3143 3145 3147 3148 3147 3149 3152 3154 3155 3155 3158 3160 3160 3162 3165 3165 3167 3168 3168 3169 3166 3165 3167 3171 3173 3174 3175 3176 3176 3177 3179 3180 3181 3182 3183 3184 3186 3187
2962 2965 2969 2972 2975 2978 2981 2983 2988 2997 3005 3009 3014 3019 3023 3029 3035 3036 3037 3041 3046 3050 3053 3057 3060 3064 3066 3067 3071 3077 3082 3087 3091 3093 3097 3101 3104 3107 3110 3113 3116 3119 3121 3125 3127 3130 3132 3135 3138 3140 3141 3143 3144 3145 3146 3148 3150 3152 3153 3153 3155 3156 3155 3160 3163 3163 3165 3166 3167 3167 3164 3163 3167 3170 3172 3173 3173 3174 3174 3176 3177 3178 3179 3180 3181 3183 3184 3185
2960 2963 2967 2970 2973 2976 2978 2981 2985 2993 3002 3007 3011 3017 3022 3027 3032 3036 3036 3038 3043 3047 3051 3054 3057 3060 3062 3064 3068 3074 3079 3083 3086 3090 3095 3099 3102 3105 3108 3111 3114 3116 3120 3123 3125 3128 3131 3133 3136 3137 3139 3140 3142 3143 3144 3146 3147 3150 3150 3149 3151 3151 3151 3157 3160 3161 3163 3164 3165 3165 3162 3162 3166 3169 3170 3171 3172 3172 3173 3174 3175 3176 3177 3179 3180 3181 3182 3183
2958 2961 2964 2968 2972 2974 2977 2979 2982 2989 2998 3004 3009 3014 3019 3023 3027 3032 3035 3037 3042 3045 3047 3048 3051 3055 3058 3059 3064 3070 3074 3078 3082 3087 3091 3095 3099 3102 3106 3109 3112 3115 3118 3121 3124 3126 3129 3132 3134 3135 3136 3138 3139 3140 3142 3144 3144 3146 3147 3147 3149 3150 3152 3155 3158 3159 3162 3162 3162 3162 3160 3161 3165 3167 3168 3169 3170 3171 3171 3172 3173 3174 3175 3177 3177 3179 3180 3181
2955 2958 2962 2966 2970 2973 2975 2978 2980 2985 2993 3001 3007 3012 3017 3020 3023 3027 3032 3036 3039 3043 3044 3044 3047 3052 3055 3055 3058 3063 3067 3073 3078 3083 3087 3091 3095 3099 3103 3106 3109 3112 3115 3119 3122 3124 3127 3129 3130 3131 3133 3135 3136 3139 3140 3139 3141 3144 3146 3147 3149 3150 3153 3154 3156 3159 3160 3160 3160 3160 3159 3160 3163 3166 3167 3168 3168 3169 3169 3170 3171 3172 3173 3174 3175 3176 3177 3178
2953 2956 2960 2964 2968 2971 2974 2976 2979 2983 2989 2998 3004 3010 3014 3017 3021 3025 3029 3033 3036 3041 3043 3042 3043 3045 3046 3048 3051 3056 3062 3069 3074 3079 3084 3088 3092 3096 3100 3104 3107 3110 3113 3117 3119 3121 3124 3125 3127 3129 3129 3130 3132 3134 3135 3136 3139 3143 3144 3147 3149 3151 3152 3152 3154 3157 3159 3158 3158 3158 3157 3159 3162 3164 3165 3166 3166 3167 3168 3169 3169 3170 3171 3172 3173 3174 3175 3176
2951 2954 2958 2962 2966 2970 2973 2975 2978 2981 2985 2993 3001 3007 3011 3014 3018 3020 3023 3026 3027 3029 3030 3031 3032 3032 3034 3040 3046 3053 3060 3067 3072 3077 3081 3085 3089 3093 3097 3101 3105 3108 3110 3113 3115 3117 3119 3122 3124 3123 3122 3124 3128 3132 3134 3136 3139 3141 3143 3146 3148 3149 3149 3150 3153 3156 3157 3156 3156 3155 3155 3158 3160 3162 3163 3164 3164 3165 3165 3166 3167 3167 3169 3170 3170 3171 3172 3173
2949 2952 2956 2960 2964 2968 2971 2973 2977 2979 2982 2989 2996 3002 3005 3007 3010 3012 3015 3018 3018 3018 3019 3023 3026 3028 3031 3036 3041 3048 3057 3065 3069 3073 3077 3082 3086 3090 3094 3098 3102 3106 3107 3110 3112 3115 3117 3118 3117 3116 3118 3123 3128 3133 3135 3136 3138 3141 3143 3144 3145 3146 3146 3149 3152 3155 3156 3154 3152 3154 3154 3155 3157 3159 3162 3162 3161 3162 3162 3163 3164 3165 3166 3167 3168 3169 3170 3171
2947 2951 2953 2958 2962 2966 2968 2971 2974 2978 2980 2985 2990 2994 2996 3000 3004 3007 3011 3014 3017 3019 3020 3024 3027 3029 3031 3035 3038 3043 3051 3059 3065 3070 3074 3079 3083 3087 3090 3093 3097 3101 3103 3107 3110 3113 3115 3113 3112 3115 3120 3125 3130 3133 3133 3135 3137 3140 3141 3142 3143 3143 3144 3148 3151 3153 3155 3152 3150 3152 3152 3151 3154 3157 3159 3159 3158 3159 3160 3162 3162 3163 3164 3165 3166 3167 3168 3170
2946 2949 2952 2956 2960 2963 2966 2969 2972 2975 2978 2981 2983 2987 2993 2998 3002 3006 3010 3012 3015 3019 3021 3025 3028 3029 3033 3036 3039 3044 3049 3053 3059 3066 3070 3074 3079 3082 3085 3089 3093 3096 3100 3104 3107 3109 3110 3109 3111 3116 3121 3126 3129 3131 3132 3134 3136 3139 3140 3140 3141 3141 3143 3147 3150 3152 3154 3151 3149 3150 3149 3148 3152 3154 3155 3155 3155 3157 3158 3159 3160 3161 3161 3162 3164 3165 3166 3168
2944 2947 2950 2954 2957 2961 2964 2966 2969 2971 2975 2977 2979 2986 2995 2999 2999 3003 3009 3010 3011 3015 3018 3021 3025 3028 3031 3033 3038 3045 3049 3050 3053 3059 3065 3070 3074 3078 3082 3086 3090 3094 3097 3100 3103 3105 3106 3107 3111 3116 3120 3123 3125 3127 3129 3132 3134 3135 3136 3137 3138 3141 3144 3146 3148 3151 3152 3150 3149 3149 3147 3146 3149 3149 3149 3151 3153 3154 3155 3156 3157 3157 3158 3159 3161 3162 3164 3165
2943 2946 2949 2951 2955 2958 2961 2964 2966 2967 2972 2974 2976 2985 2994 2997 2997 3000 3007 3009 3008 3010 3012 3016 3021 3024 3026 3029 3036 3042 3045 3048 3051 3054 3060 3065 3069 3076 3081 3085 3088 3092 3095 3099 3102 3104 3104 3107 3110 3114 3118 3120 3122 3124 3125 3127 3129 3130 3132 3133 3136 3140 3144 3145 3148 3149 3148 3148 3148 3149 3146 3141 3143 3144 3144 3148 3150 3150 3152 3153 3153 3154 3156 3157 3158 3159 3161 3162
2942 2944 2947 2949 2952 2955 2959 2960 2961 2966 2971 2971 2974 2983 2991 2994 2995 3000 3007 3009 3006 3006 3007 3011 3016 3020 3024 3029 3034 3038 3043 3048 3051 3053 3058 3062 3067 3072 3078 3084 3087 3090 3094 3098 3102 3103 3104 3106 3110 3114 3116 3118 3119 3120 3122 3124 3126 3127 3128 3130 3134 3140 3143 3146 3148 3147 3147 3147 3147 3150 3145 3136 3138 3140 3141 3145 3147 3146 3149 3149 3150 3152 3154 3155 3155 3156 3158 3159
2940 2943 2946 2948 2950 2953 2955 2956 2960 2965 2967 2968 2973 2982 2987 2990 2996 3001 3007 3007 3003 3001 3002 3006 3011 3016 3021 3025 3029 3036 3042 3046 3050 3054 3058 3062 3067 3071 3076 3081 3085 3089 3093 3097 3100 3101 3102 3104 3108 3112 3113 3115 3117 3117 3120 3123 3126 3126 3125 3128 3134 3138 3142 3145 3148 3148 3147 3145 3146 3150 3145 3135 3135 3136 3138 3142 3143 3143 3146 3146 3147 3149 3150 3151 3153 3154 3156 3157
2938 2941 2945 2947 2948 2950 2952 2954 2960 2963 2963 2967 2974 2981 2985 2990 2997 3002 3005 3004 2998 2996 2998 3001 3005 3010 3015 3020 3025 3031 3035 3039 3047 3054 3056 3060 3065 3070 3074 3077 3081 3086 3090 3095 3097 3097 3098 3101 3105 3109 3110 3112 3113 3113 3116 3120 3124 3123 3122 3128 3134 3137 3141 3144 3146 3146 3145 3144 3144 3145 3144 3139 3133 3129 3133 3139 3139 3139 3141 3141 3144 3146 3147 3149 3150 3152 3154 3155
2935 2939 2943 2946 2947 2950 2952 2954 2958 2960 2963 2970 2976 2980 2984 2991 2998 3000 2999 2996 2991 2990 2994 2997 3002 3008 3013 3018 3023 3027 3030 3034 3040 3047 3054 3059 3062 3066 3071 3075 3078 3083 3087 3091 3092 3093 3095 3099 3103 3106 3108 3108 3108 3110 3114 3118 3122 3121 3121 3127 3132 3137 3140 3141 3143 3143 3143 3145 3140 3138 3142 3138 3126 3122 3129 3134 3134 3133 3134 3138 3141 3143 3145 3146 3148 3149 3151 3153
2931 2936 2941 2945 2947 2948 2949 2951 2955 2959 2964 2971 2976 2980 2985 2992 2997 2995 2991 2987 2983 2985 2991 2996 3000 3005 3009 3015 3021 3025 3030 3034 3036 3042 3051 3056 3059 3064 3068 3073 3078 3082 3086 3089 3090 3092 3095 3098 3102 3105 3105 3105 3106 3110 3114 3118 3120 3120 3122 3126 3129 3134 3136 3139 3142 3141 3144 3143 3132 3130 3137 3134 3121 3117 3125 3128 3126 3128 3131 3136 3139 3141 3143 3144 3145 3147 3148 3150
2927 2932 2938 2943 2944 2944 2945 2947 2952 2958 2965 2971 2975 2979 2986 2990 2991 2986 2981 2978 2978 2982 2988 2993 2998 3001 3005 3010 3017 3022 3026 3030 3035 3040 3047 3051 3057 3063 3067 3073 3079 3081 3084 3087 3089 3091 3093 3096 3100 3101 3102 3103 3106 3110 3113 3118 3120 3120 3122 3124 3127 3131 3133 3137 3139 3141 3145 3136 3122 3124 3133 3133 3122 3113 3118 3121 3121 3126 3131 3134 3136 3138 3140 3141 3143 3144 3145 3147
2924 2928 2934 2939 2940 2942 2942 2944 2951 2959 2965 2970 2973 2978 2983 2985 2983 2977 2972 2973 2976 2981 2985 2990 2995 2999 3003 3006 3011 3018 3022 3027 3032 3035 3040 3046 3052 3057 3063 3068 3073 3078 3081 3083 3085 3087 3090 3093 3094 3096 3098 3101 3104 3108 3112 3115 3117 3118 3119 3122 3127 3131 3132 3137 3139 3142 3143 3129 3118 3123 3130 3133 3121 3107 3113 3119 3119 3125 3129 3130 3134 3136 3138 3139 3141 3142 3143 3144
2921 2924 2930 2935 2938 2939 2939 2944 2955 2962 2965 2968 2971 2974 2978 2977 2973 2968 2967 2971 2975 2977 2981 2986 2991 2996 3003 3007 3009 3014 3019 3024 3029 3033 3035 3040 3045 3050 3055 3058 3060 3066 3072 3076 3079 3083 3087 3089 3091 3093 3095 3098 3101 3105 3109 3112 3113 3114 3116 3120 3126 3130 3133 3135 3136 3137 3133 3122 3119 3123 3127 3127 3113 3102 3111 3117 3118 3123 3125 3127 3131 3133 3135 3137 3138 3139 3139 3140
2917 2920 2925 2930 2933 2934 2937 2946 2954 2958 2961 2965 2967 2969 2971 2967 2961 2960 2965 2970 2971 2974 2979 2984 2988 2994 3000 3005 3008 3012 3018 3023 3026 3032 3036 3040 3044 3049 3054 3057 3058 3059 3063 3070 3076 3080 3084 3088 3088 3089 3091 3093 3096 3099 3102 3105 3108 3110 3112 3116 3120 3125 3130 3130 3129 3130 3125 3119 3120 3124 3127 3120 3105 3102 3109 3112 3116 3121 3122 3125 3127 3129 3132 3133 3135 3136 3135 3137
2914 2916 2919 2923 2928 2930 2934 2943 2949 2953 2958 2961 2962 2964 2962 2957 2954 2957 2962 2967 2971 2974 2978 2982 2987 2994 2998 3001 3005 3009 3015 3022 3025 3030 3035 3040 3044 3047 3050 3055 3058 3058 3061 3068 3073 3076 3080 3083 3083 3083 3086 3088 3091 3095 3097 3100 3104 3107 3110 3115 3116 3118 3121 3122 3123 3124 3121 3119 3121 3124 3124 3113 3102 3103 3106 3108 3113 3117 3119 3123 3124 3125 3128 3130 3131 3132 3132 3134
2908 2911 2913 2916 2920 2922 2929 2939 2945 2949 2953 2956 2957 2955 2951 2950 2951 2954 2957 2962 2969 2973 2978 2982 2985 2991 2998 3000 3004 3007 3010 3017 3024 3030 3034 3036 3038 3041 3044 3047 3051 3054 3058 3063 3068 3072 3076 3079 3079 3081 3084 3087 3090 3093 3096 3099 3104 3106 3110 3114 3114 3114 3116 3119 3120 3119 3119 3120 3119 3118 3114 3103 3100 3103 3105 3107 3109 3111 3116 3119 3120 3123 3125 3126 3128 3129 3130 3131
2900 2904 2905 2905 2909 2916 2925 2935 2940 2944 2948 2951 2950 2946 2943 2946 2949 2950 2953 2958 2964 2969 2976 2983 2983 2985 2993 2998 3001 3006 3010 3014 3022 3028 3033 3036 3038 3039 3041 3043 3045 3049 3053 3057 3063 3068 3074 3077 3079 3080 3083 3086 3089 3092 3093 3097 3101 3104 3107 3107 3108 3113 3115 3117 3119 3118 3120 3119 3113 3110 3106 3101 3102 3102 3102 3106 3107 3108 3112 3114 3116 3120 3121 3123 3124 3126 3128 3128
2890 2894 2894 2894 2901 2912 2921 2930 2935 2940 2944 2945 2943 2941 2941 2945 2946 2948 2951 2954 2959 2965 2969 2975 2978 2979 2985 2993 2999 3003 3008 3015 3021 3026 3030 3035 3036 3036 3038 3041 3043 3046 3050 3055 3059 3063 3069 3075 3077 3079 3082 3084 3088 3091 3093 3095 3097 3100 3101 3101 3106 3114 3116 3117 3119 3118 3120 3117 3109 3104 3102 3102 3103 3099 3098 3103 3105 3106 3109 3110 3112 3115 3117 3119 3121 3123 3125 3125
2882 2885 2882 2883 2895 2908 2917 2925 2931 2935 2939 2940 2939 2939 2940 2943 2944 2946 2949 2951 2956 2962 2963 2966 2972 2975 2977 2983 2991 2998 3003 3009 3016 3021 3025 3028 3028 3028 3032 3035 3039 3044 3049 3054 3058 3062 3066 3072 3077 3079 3081 3083 3086 3088 3090 3093 3095 3096 3097 3099 3104 3109 3110 3112 3116 3116 3116 3114 3106 3101 3099 3099 3099 3095 3096 3101 3103 3105 3108 3108 3109 3111 3113 3115 3117 3120 3121 3121
2874 2875 2867 2872 2891 2904 2911 2919 2925 2930 2934 2932 2931 2933 2936 2939 2942 2944 2947 2949 2952 2957 2961 2962 2966 2972 2976 2978 2983 2992 2998 3002 3007 3013 3017 3019 3020 3022 3025 3029 3033 3040 3046 3051 3055 3060 3064 3069 3075 3077 3079 3082 3084 3084 3084 3086 3091 3095 3097 3099 3100 3102 3104 3106 3109 3109 3110 3110 3105 3101 3098 3094 3093 3095 3098 3101 3102 3104 3106 3106 3107 3109 3111 3112 3113 3116 3117 3117
2863 2863 2855 2866 2887 2897 2906 2917 2920 2923 2924 2923 2925 2930 2934 2937 2939 2942 2945 2947 2950 2954 2959 2960 2962 2967 2974 2979 2984 2989 2997 3003 3006 3009 3012 3013 3015 3018 3021 3025 3030 3036 3044 3050 3054 3058 3062 3065 3071 3076 3079 3080 3079 3077 3078 3081 3085 3089 3091 3094 3095 3098 3100 3103 3105 3105 3106 3107 3105 3102 3096 3091 3092 3095 3097 3099 3100 3102 3104 3104 3105 3107 3108 3109 3110 3111 3112 3113
2852 2852 2847 2861 2881 2890 2901 2909 2910 2914 2918 2919 2924 2929 2933 2934 2935 2939 2944 2947 2949 2952 2957 2960 2961 2964 2969 2976 2982 2988 2996 3003 3007 3010 3011 3011 3012 3013 3015 3020 3027 3033 3041 3048 3051 3055 3059 3063 3068 3072 3074 3076 3076 3076 3079 3081 3083 3084 3086 3089 3091 3094 3097 3100 3102 3102 3103 3104 3103 3101 3095 3088 3091 3094 3093 3096 3098 3099 3101 3102 3102 3104 3105 3106 3106 3107 3107 3108
2837 2837 2839 2857 2874 2882 2891 2898 2902 2909 2912 2914 2920 2926 2931 2932 2932 2935 2942 2947 2948 2950 2956 2960 2962 2966 2969 2972 2977 2984 2991 2998 3004 3006 3007 3007 3008 3010 3013 3018 3026 3033 3038 3044 3049 3054 3058 3062 3066 3070 3072 3075 3078 3079 3080 3081 3083 3085 3086 3086 3090 3094 3094 3095 3096 3096 3101 3101 3100 3102 3093 3082 3087 3094 3092 3094 3096 3096 3098 3099 3099 3101 3102 3103 3103 3103 3104 3104
2822 2828 2840 2858 2868 2875 2884 2891 2897 2905 2907 2912 2921 2926 2928 2930 2931 2933 2937 2944 2947 2949 2954 2959 2963 2968 2971 2975 2979 2984 2990 2996 3001 3003 3004 3007 3010 3013 3017 3020 3026 3033 3038 3041 3046 3052 3057 3061 3065 3070 3074 3077 3079 3080 3080 3081 3082 3083 3082 3083 3088 3090 3090 3093 3094 3095 3099 3097 3097 3101 3090 3076 3083 3092 3091 3092 3094 3094 3095 3097 3098 3099 3099 3100 3100 3100 3101 3101
2816 2827 2840 2854 2864 2871 2875 2878 2886 2896 2904 2912 2919 2923 2924 2926 2929 2931 2934 2940 2945 2948 2952 2957 2962 2967 2971 2976 2979 2982 2987 2993 2998 3001 3003 3005 3009 3014 3018 3021 3025 3030 3033 3036 3040 3046 3052 3058 3062 3069 3076 3079 3080 3080 3078 3076 3076 3076 3077 3081 3084 3086 3091 3094 3094 3096 3096 3092 3094 3097 3084 3074 3082 3089 3089 3091 3092 3093 3095 3096 3096 3097 3097 3097 3097 3098 3098 3099
2813 2826 2838 2850 2860 2866 2869 2874 2884 2892 2900 2908 2914 2918 2920 2921 2926 2930 2933 2938 2943 2947 2951 2954 2959 2965 2970 2975 2979 2981 2983 2986 2990 2996 3000 3004 3009 3014 3017 3020 3023 3026 3030 3035 3040 3045 3050 3053 3056 3060 3066 3069 3069 3066 3062 3063 3070 3073 3075 3078 3081 3086 3090 3090 3094 3098 3092 3087 3091 3089 3078 3076 3084 3087 3088 3090 3090 3091 3094 3094 3094 3095 3094 3094 3095 3096 3096 3097
2805 2817 2830 2843 2854 2863 2870 2878 2885 2888 2894 2902 2909 2914 2915 2917 2923 2930 2933 2936 2940 2945 2949 2953 2958 2964 2969 2974 2979 2982 2984 2985 2987 2990 2995 3001 3006 3011 3015 3019 3023 3026 3030 3035 3041 3045 3048 3050 3050 3050 3052 3053 3053 3053 3055 3061 3067 3068 3070 3074 3078 3081 3085 3089 3094 3091 3085 3086 3087 3081 3076 3079 3082 3085 3089 3090 3090 3091 3092 3092 3092 3092 3093 3093 3093 3094 3094 3095
2804 2810 2817 2828 2842 2857 2867 2874 2881 2885 2891 2898 2903 2907 2912 2914 2919 2926 2931 2933 2937 2942 2947 2952 2956 2960 2964 2969 2974 2979 2982 2984 2985 2987 2991 2998 3003 3009 3014 3018 3023 3026 3030 3035 3039 3042 3044 3045 3046 3047 3049 3050 3052 3054 3057 3061 3063 3064 3067 3071 3073 3076 3080 3083 3081 3074 3077 3084 3078 3071 3076 3077 3076 3083 3088 3088 3090 3091 3091 3091 3091 3091 3092 3092 3092 3093 3093 3093
2805 2810 2817 2824 2834 2846 2857 2867 2876 2884 2891 2897 2900 2903 2907 2911 2913 2919 2927 2932 2935 2938 2943 2950 2955 2957 2959 2963 2967 2972 2977 2980 2982 2984 2988 2993 2998 3004 3010 3017 3021 3024 3028 3033 3036 3037 3039 3039 3040 3044 3048 3050 3052 3055 3057 3060 3062 3064 3066 3067 3069 3072 3073 3072 3068 3066 3074 3076 3067 3067 3075 3073 3073 3082 3086 3087 3089 3089 3089 3090 3089 3089 3091 3091 3091 3092 3092 3092
2806 2811 2821 2831 2838 2847 2858 2868 2876 2884 2890 2895 2898 2898 2900 2905 2910 2915 2921 2927 2932 2936 2940 2945 2950 2953 2957 2961 2964 2968 2970 2972 2975 2977 2980 2984 2990 2994 3000 3006 3012 3017 3021 3024 3027 3031 3034 3035 3038 3042 3045 3048 3052 3054 3056 3060 3062 3063 3064 3065 3066 3067 3066 3065 3064 3068 3073 3069 3064 3070 3072 3067 3072 3081 3082 3085 3087 3084 3084 3086 3086 3087 3088 3089 3090 3091 3091 3091
2807 2810 2818 2831 2841 2850 2859 2868 2875 2882 2888 2892 2893 2896 2899 2902 2907 2912 2917 2921 2924 2929 2936 2940 2943 2947 2952 2957 2960 2961 2961 2961 2963 2967 2970 2975 2981 2985 2989 2992 2997 3006 3014 3018 3021 3026 3030 3033 3037 3041 3045 3048 3050 3052 3056 3059 3060 3062 3062 3062 3061 3061 3061 3061 3062 3067 3069 3064 3065 3071 3066 3061 3068 3076 3078 3081 3082 3081 3080 3080 3082 3084 3085 3086 3088 3088 3089 3090
2810 2815 2822 2831 2841 2849 2856 2863 2870 2877 2883 2887 2889 2892 2897 2901 2905 2911 2916 2919 2921 2923 2927 2931 2936 2942 2949 2954 2955 2956 2959 2962 2965 2968 2972 2976 2979 2982 2986 2989 2993 3001 3010 3017 3021 3025 3030 3034 3037 3041 3046 3047 3048 3053 3056 3057 3060 3060 3056 3053 3054 3055 3056 3058 3059 3063 3063 3061 3066 3068 3059 3054 3063 3072 3074 3076 3078 3078 3078 3078 3080 3082 3082 3084 3085 3086 3086 3087
2813 2821 2827 2833 2841 2849 2855 2860 2867 2872 2876 2882 2886 2891 2896 2900 2906 2911 2914 2918 2922 2924 2925 2929 2935 2941 2946 2949 2951 2955 2962 2967 2971 2975 2979 2982 2986 2989 2992 2996 2999 3002 3007 3015 3021 3026 3031 3033 3036 3041 3044 3045 3048 3053 3054 3057 3061 3053 3041 3039 3047 3051 3053 3055 3055 3055 3058 3060 3061 3056 3050 3053 3061 3066 3069 3072 3075 3076 3075 3076 3077 3078 3080 3081 3081 3082 3083 3083